User: anonymous   Login
Location: Keppel Henge
(44.7900°N, 80.9447°W)
Time: 04:20:54
(UTC-04:00)
Language:

Envisat - Orbit

View from above orbital plane
View from above orbital plane
View from above satellite
View from above satellite

Ground track
Ground track

The orbit data is extracted from the following two-line orbital elements,

1 27386U 02009A   17293.85026942 -.00000013  00000-0  94883-5 0  9997
2 27386  98.2182 333.7916 0001275  87.9776 272.1553 14.37905745819131
Epoch (UTC): 20 October 2017 20:24:23
Eccentricity: 0.0001275
inclination: 98.2182°
perigee height: 764 km
apogee height: 766 km
right ascension of ascending node: 333.7916°
argument of perigee: 87.9776°
revolutions per day: 14.37905745
mean anomaly at epoch: 272.1553°
orbit number at epoch: 81913

The dashed part of the orbit path shows where the satellite is in the earth's shadow,  

DLR